Weather History for KSLB - August, 2012

Change the Weather History Date:

Wednesday, August 15, 2012

  Actual Average Record
Temperature  
Mean Temperature 72 °F -  
Max Temperature 86 °F 77 °F 87 °F (2003)
Min Temperature 59 °F 59 °F 50 °F (2004)
Cooling Degree Days 8    
Growing Degree Days 22 (Base 50)    
Moisture  
Dew Point 62 °F    
Average Humidity 71    
Maximum Humidity 100    
Minimum Humidity 45    
Precipitation  
Precipitation 0.00 in - - ()
Sea Level Pressure  
Sea Level Pressure 29.81 in    
Wind  
Wind Speed 11 mph (SSW)    
Max Wind Speed 20 mph    
Max Gust Speed 30 mph    
Visibility 10 miles    
Events      
Averages and records for this station are not official NWS values.
T = Trace of Precipitation, MM = Missing Value Source: NWS Daily Summary

Daily Weather History Graph

Daily Weather History Graph

Search for Another Location

Airport or City:

Trip Planner

Search our weather history database for the weather conditions in past years. The results will help you decide how hot, cold, wet, or windy it might be!

Date:

Astronomy

Aug. 15, 2012 Rise Set
Actual Time 6:28 AM CDT 8:21 PM CDT
Civil Twilight 5:57 AM CDT 8:51 PM CDT
Nautical Twilight 5:20 AM CDT 9:28 PM CDT
Astronomical Twilight 4:40 AM CDT 10:08 PM CDT
Moon 4:24 AM CDT (8/15) 6:56 PM CDT (8/15)
Length of Visible Light 14h 54m
Length of Day
13h 53m
Waning Crescent, 4% of the Moon is Illuminated
Aug 15
Waning Crescent
Aug 17
New
Aug 24
First Quarter
Aug 31
Full
Sep 8
Last Quarter

Hourly Weather History & Observations

Time (CDT) Temp. Heat Index Dew Point Humidity Pressure Visibility Wind Dir Wind Speed Gust Speed Precip Events Conditions
12:15 AM 64.4 °F - 59.0 °F 83% 29.87 in 10.0 mi South 8.1 mph - N/A   Clear
12:35 AM 64.4 °F - 59.0 °F 83% 29.88 in 10.0 mi South 8.1 mph - N/A   Clear
12:55 AM 62.6 °F - 59.0 °F 88% 29.87 in 10.0 mi South 6.9 mph - N/A   Clear
1:15 AM 60.8 °F - 59.0 °F 94% 29.87 in 10.0 mi South 6.9 mph - N/A   Clear
1:35 AM 62.6 °F - 59.0 °F 88% 29.87 in 10.0 mi South 9.2 mph - N/A   Clear
1:55 AM 64.4 °F - 59.0 °F 83% 29.86 in 10.0 mi South 9.2 mph - N/A   Clear
2:15 AM 64.4 °F - 60.8 °F 88% 29.86 in 10.0 mi South 9.2 mph - N/A   Clear
2:35 AM 64.4 °F - 60.8 °F 88% 29.86 in 10.0 mi SSW 9.2 mph - N/A   Clear
2:55 AM 64.4 °F - 60.8 °F 88% 29.86 in 10.0 mi SSW 10.4 mph - N/A   Scattered Clouds
3:15 AM 64.4 °F - 60.8 °F 88% 29.86 in 10.0 mi SSW 8.1 mph - N/A   Scattered Clouds
3:35 AM 64.4 °F - 60.8 °F 88% 29.86 in 10.0 mi SSW 10.4 mph - N/A   Partly Cloudy
3:55 AM 64.4 °F - 60.8 °F 88% 29.86 in 10.0 mi SSW 11.5 mph 18.4 mph N/A   Scattered Clouds
4:15 AM 64.4 °F - 60.8 °F 88% 29.86 in 10.0 mi SSW 11.5 mph 17.3 mph N/A   Partly Cloudy
4:35 AM 64.4 °F - 60.8 °F 88% 29.86 in 10.0 mi SW 9.2 mph 15.0 mph N/A   Mostly Cloudy
4:55 AM 62.6 °F - 60.8 °F 94% 29.86 in 10.0 mi SSW 11.5 mph 17.3 mph N/A   Mostly Cloudy
5:15 AM 62.6 °F - 59.0 °F 88% 29.87 in 10.0 mi SSW 11.5 mph - N/A   Partly Cloudy
5:35 AM 62.6 °F - 59.0 °F 88% 29.87 in 10.0 mi SSW 11.5 mph - N/A   Clear
5:55 AM 60.8 °F - 59.0 °F 94% 29.86 in 10.0 mi South 9.2 mph - N/A   Clear
6:15 AM 60.8 °F - 59.0 °F 94% 29.86 in 10.0 mi South 6.9 mph - N/A   Clear
6:35 AM 59.0 °F - 59.0 °F 100% 29.87 in 8.0 mi South 6.9 mph - N/A   Clear
6:55 AM 59.0 °F - 59.0 °F 100% 29.86 in 7.0 mi South 8.1 mph - N/A   Clear
7:15 AM 60.8 °F - 59.0 °F 94% 29.86 in 8.0 mi South 11.5 mph - N/A   Clear
7:35 AM 60.8 °F - 59.0 °F 94% 29.86 in 9.0 mi South 9.2 mph - N/A   Clear
7:55 AM 62.6 °F - 59.0 °F 88% 29.86 in 9.0 mi South 9.2 mph - N/A   Clear
8:15 AM 64.4 °F - 59.0 °F 83% 29.85 in 10.0 mi South 9.2 mph 16.1 mph N/A   Partly Cloudy
8:35 AM 64.4 °F - 59.0 °F 83% 29.85 in 10.0 mi South 11.5 mph 17.3 mph N/A   Partly Cloudy
8:55 AM 66.2 °F - 59.0 °F 78% 29.85 in 10.0 mi SSW 12.7 mph - N/A   Clear
9:35 AM 68.0 °F - 59.0 °F 73% 29.83 in 10.0 mi South 13.8 mph 23.0 mph N/A   Clear
9:55 AM 69.8 °F - 60.8 °F 73% 29.83 in 10.0 mi South 15.0 mph 21.9 mph N/A   Clear
10:15 AM 71.6 °F - 60.8 °F 69% 29.84 in 10.0 mi SSW 18.4 mph 25.3 mph N/A   Clear
10:35 AM 71.6 °F - 59.0 °F 64% 29.83 in 10.0 mi SSW 16.1 mph 26.5 mph N/A   Clear
10:55 AM 73.4 °F - 59.0 °F 61% 29.82 in 10.0 mi SSW 19.6 mph 26.5 mph N/A   Clear
11:15 AM 73.4 °F - 59.0 °F 61% 29.82 in 10.0 mi SSW 18.4 mph 27.6 mph N/A   Clear
11:35 AM 75.2 °F - 60.8 °F 61% 29.80 in 10.0 mi South 16.1 mph 24.2 mph N/A   Clear
11:55 AM 77.0 °F - 60.8 °F 57% 29.79 in 10.0 mi South 17.3 mph 26.5 mph N/A   Clear
12:15 PM 78.8 °F - 60.8 °F 54% 29.77 in 10.0 mi South 15.0 mph 24.2 mph N/A   Clear
12:35 PM 78.8 °F - 60.8 °F 54% 29.79 in 10.0 mi SSW 16.1 mph 29.9 mph N/A   Clear
12:55 PM 80.6 °F 81.8 °F 62.6 °F 54% 29.79 in 10.0 mi SSW 18.4 mph 27.6 mph N/A   Clear
1:15 PM 80.6 °F 81.8 °F 62.6 °F 54% 29.78 in 10.0 mi SSW 18.4 mph 27.6 mph N/A   Clear
1:35 PM 82.4 °F 83.4 °F 62.6 °F 51% 29.78 in 10.0 mi SSW 17.3 mph 27.6 mph N/A   Clear
1:55 PM 82.4 °F 83.4 °F 62.6 °F 51% 29.78 in 10.0 mi SSW 15.0 mph 26.5 mph N/A   Clear
2:15 PM 82.4 °F 83.4 °F 62.6 °F 51% 29.77 in 10.0 mi South 11.5 mph 23.0 mph N/A   Clear
2:35 PM 84.2 °F 85.0 °F 62.6 °F 48% 29.77 in 10.0 mi South 17.3 mph 23.0 mph N/A   Clear
2:55 PM 84.2 °F 85.0 °F 62.6 °F 48% 29.76 in 10.0 mi South 13.8 mph 21.9 mph N/A   Clear
3:15 PM 84.2 °F 85.6 °F 64.4 °F 51% 29.74 in 10.0 mi South 19.6 mph 25.3 mph N/A   Clear
3:35 PM 86.0 °F 86.6 °F 62.6 °F 45% 29.73 in 10.0 mi South 17.3 mph 24.2 mph N/A   Clear
3:55 PM 86.0 °F 86.6 °F 62.6 °F 45% 29.74 in 10.0 mi South 15.0 mph 21.9 mph N/A   Clear
4:15 PM 86.0 °F 86.6 °F 62.6 °F 45% 29.74 in 10.0 mi South 16.1 mph 23.0 mph N/A   Clear
4:35 PM 86.0 °F 86.6 °F 62.6 °F 45% 29.74 in 10.0 mi South 15.0 mph 21.9 mph N/A   Clear
4:55 PM 86.0 °F 87.3 °F 64.4 °F 48% 29.73 in 10.0 mi South 12.7 mph 23.0 mph N/A   Clear
5:15 PM 86.0 °F 87.3 °F 64.4 °F 48% 29.74 in 10.0 mi SSW 9.2 mph 19.6 mph N/A   Clear
5:35 PM 86.0 °F 87.3 °F 64.4 °F 48% 29.74 in 10.0 mi SSW 12.7 mph - N/A   Clear
5:55 PM 86.0 °F 87.3 °F 64.4 °F 48% 29.74 in 10.0 mi SSW 11.5 mph - N/A   Clear
6:15 PM 86.0 °F 87.3 °F 64.4 °F 48% 29.74 in 10.0 mi SSW 10.4 mph - N/A   Clear
6:35 PM 84.2 °F 86.6 °F 66.2 °F 55% 29.74 in 10.0 mi South 6.9 mph 12.7 mph N/A   Clear
6:55 PM 82.4 °F 84.6 °F 66.2 °F 58% 29.74 in 10.0 mi South 6.9 mph - N/A   Clear
7:15 PM 80.6 °F 83.2 °F 68.0 °F 65% 29.73 in 10.0 mi South 6.9 mph - N/A   Partly Cloudy
7:35 PM 78.8 °F - 68.0 °F 69% 29.74 in 10.0 mi South 8.1 mph - N/A   Clear
7:55 PM 77.0 °F - 68.0 °F 74% 29.74 in 10.0 mi South 6.9 mph - N/A   Clear
8:15 PM 77.0 °F - 68.0 °F 74% 29.74 in 10.0 mi South 6.9 mph - N/A   Clear
8:35 PM 77.0 °F - 68.0 °F 74% 29.75 in 10.0 mi South 6.9 mph - N/A   Mostly Cloudy
8:55 PM 75.2 °F - 68.0 °F 78% 29.75 in 10.0 mi South 8.1 mph - N/A   Overcast
9:15 PM 77.0 °F - 66.2 °F 69% 29.76 in 10.0 mi SSW 5.8 mph - N/A   Mostly Cloudy
9:35 PM 73.4 °F - 68.0 °F 83% 29.77 in 10.0 mi South 4.6 mph - N/A   Overcast
9:55 PM 75.2 °F - 66.2 °F 73% 29.78 in 10.0 mi South 4.6 mph - N/A   Overcast
10:15 PM 75.2 °F - 68.0 °F 78% 29.78 in 10.0 mi SSW 4.6 mph - N/A   Overcast
10:35 PM 77.0 °F - 66.2 °F 69% 29.78 in 10.0 mi West 8.1 mph - N/A   Overcast
10:55 PM 77.0 °F - 68.0 °F 74% 29.79 in 10.0 mi NNW 12.7 mph - N/A   Mostly Cloudy
11:55 PM 73.4 °F - 64.4 °F 73% 29.82 in 10.0 mi North 10.4 mph 18.4 mph N/A   Mostly Cloudy